Weather History for Keene, NH

Change the Weather History Date:

Thursday, January 31, 2013

  Actual Average Record
Temperature  
Mean Temperature 42 °F -  
Max Temperature 57 °F 32 °F 57 °F (2013)
Min Temperature 28 °F 11 °F -18 °F (1934)
Degree Days  
Heating Degree Days 22    
Moisture  
Dew Point 31 °F    
Average Humidity 66    
Maximum Humidity 100    
Minimum Humidity 41    
Precipitation  
Precipitation 0.79 in - - ()
Sea Level Pressure  
Sea Level Pressure 29.24 in    
Wind  
Wind Speed 13 mph (WSW)    
Max Wind Speed 29 mph    
Max Gust Speed 41 mph    
Visibility 9 miles    
Events      
Averages and records for this station are not official NWS values.
T = Trace of Precipitation, MM = Missing Value Source: NWS Daily Summary

Daily Weather History Graph

Daily Weather History Graph

Search for Another Location

Airport:

Trip Planner

Search our weather history database for the weather conditions in past years. The results will help you decide how hot, cold, wet, or windy it might be!

Date:

Astronomy

Jan. 31, 2013 Rise Set
Actual Time 7:04 AM EST 5:00 PM EST
Civil Twilight 6:34 AM EST 5:31 PM EST
Nautical Twilight 6:00 AM EST 6:05 PM EST
Astronomical Twilight 5:27 AM EST 6:38 PM EST
Moon 10:09 PM EST (1/31) 8:54 AM EST (1/31)
Length of Visible Light 10h 56m
Length of Day
9h 56m
Waning Gibbous, 80% of the Moon is Illuminated
Jan 31
Waning Gibbous
Feb 3
Last Quarter
Feb 10
New
Feb 17
First Quarter
Feb 25
Full

Hourly Weather History & Observations

Time (EST) Temp. Windchill Dew Point Humidity Pressure Visibility Wind Dir Wind Speed Gust Speed Precip Events Conditions
12:15 AM 46.4 °F - 46.4 °F 100% 29.36 in 0.2 mi Calm Calm - N/A   Overcast
12:35 AM 48.2 °F - 46.4 °F 93% 29.33 in 0.5 mi South 8.1 mph - 0.01 in   Overcast
12:55 AM 53.6 °F - 51.8 °F 94% 29.31 in 9.0 mi South 11.5 mph 16.1 mph 0.01 in   Overcast
1:15 AM 53.6 °F - 53.6 °F 100% 29.28 in 9.0 mi South 13.8 mph 20.7 mph 0.04 in   Overcast
1:35 AM 55.4 °F - 53.6 °F 94% 29.26 in 6.0 mi South 13.8 mph 20.7 mph 0.04 in   Overcast
1:55 AM 55.4 °F - 53.6 °F 94% 29.24 in 7.0 mi SSW 18.4 mph 28.8 mph 0.06 in   Overcast
2:16 AM 55.4 °F - 53.6 °F 94% 29.22 in 9.0 mi South 13.8 mph 23.0 mph 0.05 in   Overcast
2:35 AM 55.4 °F - 53.6 °F 94% 29.18 in 10.0 mi South 18.4 mph - 0.10 in   Overcast
2:55 AM 57.2 °F - 53.6 °F 88% 29.15 in 10.0 mi South 18.4 mph 34.5 mph 0.11 in   Overcast
3:15 AM 57.2 °F - 53.6 °F 88% 29.14 in 10.0 mi South 17.3 mph 26.5 mph 0.02 in   Overcast
3:35 AM 57.2 °F - 53.6 °F 88% 29.11 in 7.0 mi South 15.0 mph 26.5 mph 0.04 in   Overcast
3:55 AM 57.2 °F - 55.4 °F 94% 29.06 in 8.0 mi South 19.6 mph 26.5 mph 0.05 in   Overcast
4:15 AM 57.2 °F - 55.4 °F 94% 29.03 in 10.0 mi South 18.4 mph 28.8 mph 0.02 in   Overcast
4:35 AM 57.2 °F - 55.4 °F 94% 29.00 in 8.0 mi South 23.0 mph 36.8 mph 0.05 in   Overcast
4:55 AM 57.2 °F - 55.4 °F 94% 28.98 in 8.0 mi South 20.7 mph 33.4 mph 0.11 in   Overcast
5:15 AM 57.2 °F - 55.4 °F 94% 28.96 in 7.0 mi South 20.7 mph 31.1 mph 0.11 in   Overcast
5:35 AM 57.2 °F - 55.4 °F 94% 28.97 in 9.0 mi SSW 18.4 mph 31.1 mph 0.20 in   Overcast
5:55 AM 57.2 °F - 53.6 °F 88% 28.99 in 10.0 mi SSW 21.9 mph 29.9 mph 0.27 in   Overcast
6:15 AM 57.2 °F - 51.8 °F 82% 28.99 in 10.0 mi South 13.8 mph 26.5 mph 0.02 in   Mostly Cloudy
6:35 AM 55.4 °F - 53.6 °F 94% 28.98 in 10.0 mi South 13.8 mph - 0.05 in   Overcast
6:55 AM 55.4 °F - 51.8 °F 88% 28.93 in 10.0 mi South 13.8 mph 18.4 mph 0.05 in   Mostly Cloudy
7:15 AM 53.6 °F - 51.8 °F 94% 28.92 in 10.0 mi South 10.4 mph - 0.01 in   Overcast
7:35 AM 55.4 °F - 51.8 °F 88% 28.93 in 10.0 mi South 16.1 mph 19.6 mph 0.01 in   Mostly Cloudy
7:55 AM 55.4 °F - 51.8 °F 88% 28.92 in 10.0 mi SSW 18.4 mph 28.8 mph 0.01 in   Mostly Cloudy
8:15 AM 44.6 °F 38.4 °F 39.2 °F 81% 29.01 in 10.0 mi WSW 12.7 mph 27.6 mph 0.10 in   Overcast
8:35 AM 42.8 °F 37.5 °F 35.6 °F 76% 29.05 in 10.0 mi SW 9.2 mph 20.7 mph 0.11 in   Overcast
8:55 AM 42.8 °F 40.1 °F 33.8 °F 70% 29.06 in 10.0 mi West 4.6 mph 25.3 mph 0.11 in   Overcast
9:16 AM 42.8 °F 41.1 °F 33.8 °F 70% 29.09 in 10.0 mi West 3.5 mph - 0.01 in   Overcast
9:35 AM 41.0 °F 34.3 °F 32.0 °F 70% 29.11 in 10.0 mi West 11.5 mph 16.1 mph 0.01 in   Overcast
9:55 AM 41.0 °F 37.1 °F 32.0 °F 70% 29.11 in 10.0 mi West 5.8 mph - 0.01 in   Overcast
10:16 AM 42.8 °F 35.4 °F 30.2 °F 61% 29.12 in 10.0 mi WNW 15.0 mph 24.2 mph N/A   Mostly Cloudy
10:35 AM 41.0 °F 32.2 °F 26.6 °F 57% 29.16 in 10.0 mi WNW 18.4 mph 33.4 mph N/A   Overcast
10:55 AM 41.0 °F 34.3 °F 26.6 °F 57% 29.17 in 10.0 mi West 11.5 mph 24.2 mph N/A   Overcast
11:15 AM 41.0 °F 30.0 °F 24.8 °F 53% 29.19 in 10.0 mi West 28.8 mph 41.4 mph N/A   Overcast
11:35 AM 39.2 °F 30.5 °F 23.0 °F 52% 29.20 in 10.0 mi WSW 16.1 mph 36.8 mph N/A   Overcast
11:55 AM 39.2 °F 29.6 °F 21.2 °F 49% 29.21 in 10.0 mi West 19.6 mph 35.7 mph N/A   Mostly Cloudy
12:15 PM 39.2 °F 31.2 °F 21.2 °F 49% 29.21 in 10.0 mi West 13.8 mph 25.3 mph N/A   Mostly Cloudy
12:35 PM 39.2 °F 29.3 °F 19.4 °F 45% 29.23 in 10.0 mi WSW 20.7 mph 32.2 mph N/A   Overcast
12:55 PM 39.2 °F 28.7 °F 19.4 °F 45% 29.25 in 10.0 mi WNW 23.0 mph 33.4 mph N/A   Mostly Cloudy
1:16 PM 39.2 °F 29.8 °F 17.6 °F 42% 29.26 in 10.0 mi West 18.4 mph 31.1 mph N/A   Mostly Cloudy
1:35 PM 37.4 °F 27.2 °F 17.6 °F 45% 29.27 in 10.0 mi West 19.6 mph 34.5 mph N/A   Overcast
1:55 PM 37.4 °F 26.9 °F 15.8 °F 41% 29.28 in 10.0 mi WNW 20.7 mph 32.2 mph N/A   Overcast
2:15 PM 37.4 °F 28.5 °F 15.8 °F 41% 29.30 in 10.0 mi West 15.0 mph 34.5 mph N/A   Mostly Cloudy
2:35 PM 37.4 °F 27.8 °F 15.8 °F 41% 29.31 in 10.0 mi West 17.3 mph 33.4 mph N/A   Mostly Cloudy
2:55 PM 35.6 °F 26.2 °F 15.8 °F 44% 29.33 in 10.0 mi West 15.0 mph 28.8 mph N/A   Overcast
3:35 PM 35.6 °F 26.2 °F 15.8 °F 44% 29.35 in 10.0 mi WSW 15.0 mph 21.9 mph N/A   Overcast
4:15 PM 35.6 °F 26.6 °F 15.8 °F 44% 29.38 in 10.0 mi West 13.8 mph 35.7 mph N/A   Overcast
4:35 PM 35.6 °F 27.5 °F 15.8 °F 44% 29.38 in 10.0 mi West 11.5 mph 23.0 mph N/A   Overcast
4:55 PM 35.6 °F 25.5 °F 15.8 °F 44% 29.39 in 10.0 mi WNW 17.3 mph 23.0 mph N/A   Overcast
5:15 PM 33.8 °F 23.9 °F 12.2 °F 41% 29.41 in 10.0 mi West 15.0 mph 26.5 mph N/A   Overcast
5:35 PM 33.8 °F 25.8 °F 12.2 °F 41% 29.42 in 10.0 mi West 10.4 mph 17.3 mph N/A   Overcast
5:55 PM 33.8 °F 27.7 °F 14.0 °F 44% 29.44 in 10.0 mi WNW 6.9 mph 18.4 mph N/A   Mostly Cloudy
6:35 PM 32.0 °F 22.5 °F 14.0 °F 48% 29.46 in 10.0 mi West 12.7 mph 27.6 mph N/A   Partly Cloudy
7:15 PM 30.2 °F 19.3 °F 12.2 °F 47% 29.50 in 10.0 mi West 15.0 mph 35.7 mph N/A   Partly Cloudy
7:35 PM 30.2 °F 18.9 °F 12.2 °F 47% 29.50 in 10.0 mi West 16.1 mph 25.3 mph N/A   Clear
8:15 PM 30.2 °F 20.8 °F 12.2 °F 47% 29.52 in 10.0 mi WSW 11.5 mph 27.6 mph N/A   Mostly Cloudy
8:35 PM 28.4 °F 17.5 °F 12.2 °F 51% 29.53 in 10.0 mi WSW 13.8 mph 21.9 mph N/A   Partly Cloudy
8:55 PM 28.4 °F 18.0 °F 12.2 °F 51% 29.54 in 10.0 mi WSW 12.7 mph 19.6 mph N/A   Partly Cloudy
9:15 PM 28.4 °F 18.5 °F 10.4 °F 47% 29.54 in 10.0 mi WSW 11.5 mph 32.2 mph N/A   Clear
9:35 PM 28.4 °F 20.4 °F 10.4 °F 47% 29.54 in 10.0 mi WSW 8.1 mph 23.0 mph N/A   Clear
10:15 PM 28.4 °F 20.4 °F 8.6 °F 43% 29.55 in 10.0 mi WSW 8.1 mph 27.6 mph N/A   Clear
10:35 PM 28.4 °F 19.7 °F 10.4 °F 47% 29.55 in 10.0 mi WSW 9.2 mph 20.7 mph N/A   Clear
11:15 PM 28.4 °F 21.2 °F 10.4 °F 47% 29.57 in 10.0 mi WSW 6.9 mph 18.4 mph N/A   Mostly Cloudy
11:35 PM 28.4 °F 16.6 °F 10.4 °F 47% 29.57 in 10.0 mi West 16.1 mph 24.2 mph N/A   Mostly Cloudy
11:55 PM 28.4 °F 17.0 °F 8.6 °F 43% 29.57 in 10.0 mi WSW 15.0 mph 24.2 mph N/A   Partly Cloudy